Weather History for Fort Lewis, WA

Change the Weather History Date:

Monday, July 30, 2012

  Actual Average Record
Temperature  
Mean Temperature 58 °F -  
Max Temperature 66 °F 76 °F 95 °F (2003)
Min Temperature 51 °F 53 °F 50 °F (2001)
Degree Days  
Heating Degree Days 6    
Growing Degree Days 8 (Base 50)    
Moisture  
Dew Point 52 °F    
Average Humidity 72    
Maximum Humidity 94    
Minimum Humidity 63    
Precipitation  
Precipitation 0.00 in - - ()
Sea Level Pressure  
Sea Level Pressure 30.16 in    
Wind  
Wind Speed 5 mph (SW)    
Max Wind Speed 9 mph    
Max Gust Speed -    
Visibility 10 miles    
Events Rain    
Averages and records for this station are not official NWS values.
T = Trace of Precipitation, MM = Missing Value Source: NWS Daily Summary

Daily Weather History Graph

Daily Weather History Graph

Search for Another Location

Airport:

Trip Planner

Search our weather history database for the weather conditions in past years. The results will help you decide how hot, cold, wet, or windy it might be!

Date:

Astronomy

Jul. 30, 2012 Rise Set
Actual Time 5:47 AM PDT 8:44 PM PDT
Civil Twilight 5:11 AM PDT 9:20 PM PDT
Nautical Twilight 4:25 AM PDT 10:06 PM PDT
Astronomical Twilight 3:30 AM PDT 11:01 PM PDT
Moon 6:53 PM PDT (7/30) 3:04 AM PDT (7/30)
Length of Visible Light 16h 08m
Length of Day
14h 57m
Waxing Gibbous, 93% of the Moon is Illuminated
Jul 30
Waxing Gibbous
Aug 1
Full
Aug 9
Last Quarter
Aug 17
New
Aug 24
First Quarter

Hourly Weather History & Observations

Time (PDT) Temp. Dew Point Humidity Pressure Visibility Wind Dir Wind Speed Gust Speed Precip Events Conditions
12:58 AM 55.0 °F 51.6 °F 88% 30.15 in 10.0 mi South 4.6 mph - N/A   Partly Cloudy
1:58 AM 53.4 °F 51.1 °F 92% 30.15 in 10.0 mi SE 3.5 mph - N/A   Clear
2:58 AM 51.8 °F 49.1 °F 90% 30.16 in 10.0 mi SE 3.5 mph - N/A   Clear
3:18 AM 51.8 °F 50.0 °F 94% 30.15 in 10.0 mi South 3.5 mph - N/A   Mostly Cloudy
3:58 AM 54.5 °F 51.6 °F 90% 30.16 in 10.0 mi SSE 2.3 mph - N/A   Overcast
4:23 AM 55.4 °F 51.8 °F 88% 30.15 in 10.0 mi SSW 3.5 mph - N/A   Overcast
4:58 AM 55.6 °F 51.8 °F 87% 30.16 in 10.0 mi South 2.3 mph - N/A   Overcast
5:38 AM 55.4 °F 51.8 °F 88% 30.15 in 10.0 mi SSW 3.5 mph - N/A   Overcast
5:58 AM 55.9 °F 51.8 °F 86% 30.16 in 10.0 mi SSW 3.5 mph - N/A   Overcast
6:53 AM 55.4 °F 51.8 °F 88% 30.15 in 10.0 mi South 4.6 mph - N/A   Overcast
6:58 AM 56.1 °F 51.6 °F 85% 30.17 in 10.0 mi South 5.8 mph - N/A   Overcast
7:58 AM 57.0 °F 50.5 °F 79% 30.17 in 10.0 mi South 6.9 mph - N/A   Overcast
8:58 AM 58.5 °F 50.4 °F 74% 30.18 in 10.0 mi South 8.1 mph - N/A   Overcast
9:58 AM 59.7 °F 50.7 °F 72% 30.18 in 10.0 mi South 5.8 mph - N/A   Overcast
10:58 AM 60.8 °F 51.6 °F 72% 30.18 in 10.0 mi SW 6.9 mph - N/A   Overcast
11:58 AM 61.5 °F 52.3 °F 72% 30.19 in 10.0 mi South 5.8 mph - N/A   Overcast
12:58 PM 62.6 °F 53.1 °F 71% 30.19 in 10.0 mi South 8.1 mph - N/A   Overcast
1:58 PM 64.2 °F 53.6 °F 68% 30.19 in 10.0 mi South 6.9 mph - N/A   Overcast
2:02 PM 64.4 °F 53.6 °F 68% 30.17 in 10.0 mi South 4.6 mph - N/A   Light Drizzle
2:22 PM 64.4 °F 53.6 °F 68% 30.17 in 10.0 mi SSW 5.8 mph - N/A   Overcast
2:58 PM 64.4 °F 54.0 °F 69% 30.18 in 10.0 mi Variable 3.5 mph - 0.00 in   Overcast
3:58 PM 65.8 °F 54.0 °F 65% 30.17 in 10.0 mi Variable 3.5 mph - N/A   Overcast
4:58 PM 65.8 °F 54.0 °F 65% 30.16 in 10.0 mi SW 8.1 mph - N/A   Overcast
5:28 PM 66.2 °F 53.6 °F 64% 30.15 in 10.0 mi SSW 4.6 mph - N/A   Overcast
5:38 PM 66.2 °F 53.6 °F 64% 30.15 in 10.0 mi South 5.8 mph - N/A   Overcast
5:57 PM 66.2 °F 53.6 °F 64% 30.15 in 10.0 mi SSW 6.9 mph - N/A Rain Light Rain
5:58 PM 66.0 °F 52.9 °F 63% 30.16 in 10.0 mi SSW 6.9 mph - N/A Rain Light Rain
6:22 PM 66.2 °F 53.6 °F 64% 30.14 in 10.0 mi SSE 6.9 mph - N/A   Overcast
6:52 PM 64.4 °F 51.8 °F 64% 30.15 in 10.0 mi West 9.2 mph - N/A   Overcast
6:58 PM 65.1 °F 52.3 °F 63% 30.16 in 10.0 mi West 6.9 mph - 0.00 in   Overcast
7:13 PM 64.4 °F 51.8 °F 64% 30.15 in 10.0 mi West 8.1 mph - N/A   Overcast
7:50 PM 64.4 °F 51.8 °F 64% 30.15 in 10.0 mi West 6.9 mph - N/A Rain Light Rain
7:58 PM 64.2 °F 51.8 °F 64% 30.16 in 10.0 mi West 5.8 mph - 0.00 in Rain Light Rain
8:48 PM 62.6 °F 51.8 °F 68% 30.15 in 10.0 mi West 5.8 mph - N/A Rain Light Rain
9:00 PM 62.6 °F 50.0 °F 63% 30.16 in 10.0 mi WNW 5.8 mph - N/A   Overcast
9:58 PM 62.1 °F 50.2 °F 65% 30.17 in 10.0 mi WNW 4.6 mph - 0.00 in   Overcast
9:59 PM 62.6 °F 50.0 °F 63% 30.16 in 10.0 mi WNW 3.5 mph - N/A   Light Drizzle
10:10 PM 62.6 °F 50.0 °F 63% 30.16 in 10.0 mi West 6.9 mph - N/A Rain Light Rain
10:19 PM 62.6 °F 50.0 °F 63% 30.16 in 10.0 mi SW 5.8 mph - N/A   Overcast
10:20 PM 62.6 °F 50.0 °F 63% 30.15 in 10.0 mi SW 5.8 mph - N/A   Overcast
10:25 PM 62.6 °F 50.0 °F 63% 30.16 in 10.0 mi SW 8.1 mph - N/A   Light Drizzle
10:34 PM 60.8 °F 50.0 °F 68% 30.16 in 10.0 mi SW 6.9 mph - N/A   Overcast
10:41 PM 60.8 °F 50.0 °F 68% 30.16 in 10.0 mi WSW 5.8 mph - N/A Rain Light Rain
10:42 PM 60.8 °F 50.0 °F 68% 30.16 in 10.0 mi WSW 5.8 mph - N/A   Overcast
10:45 PM 60.8 °F 50.0 °F 68% 30.16 in 10.0 mi WSW 4.6 mph - N/A   Overcast
11:58 PM 59.0 °F 50.0 °F 72% 30.16 in 10.0 mi West 5.8 mph - N/A   Overcast